| time (UTC) | temp F | wind direction | speed knots | gust knots | rain 1hr in | rain 24hr in | rain mn in | humidity % | barometer mb |
| 20260503021403 | 55 | 71 | 3.5 | 7.8 | 0.00 | 0.00 | 0.00 | 73 | 1016.5 |
| 20260503020903 | 55 | 61 | 4.3 | 7.8 | 0.00 | 0.00 | 0.00 | 72 | 1016.5 |
| 20260503020400 | 55 | 53 | 3.5 | 7.8 | 0.00 | 0.00 | 0.00 | 72 | 1016.6 |
| 20260503015859 | 55 | 56 | 3.5 | 7.0 | 0.00 | 0.00 | 0.00 | 72 | 1016.6 |
| 20260503015359 | 55 | 65 | 3.5 | 7.0 | 0.00 | 0.00 | 0.00 | 73 | 1016.6 |
| 20260503014857 | 55 | 65 | 3.5 | 7.0 | 0.00 | 0.00 | 0.00 | 73 | 1016.7 |
| 20260503014355 | 55 | 66 | 2.6 | 7.0 | 0.00 | 0.00 | 0.00 | 73 | 1016.7 |
| 20260503013855 | 55 | 66 | 2.6 | 6.1 | 0.00 | 0.00 | 0.00 | 74 | 1016.8 |
| 20260503012852 | 54 | 59 | 2.6 | 4.3 | 0.00 | 0.00 | 0.00 | 74 | 1016.8 |
| 20260503012351 | 54 | 52 | 1.7 | 3.5 | 0.00 | 0.00 | 0.00 | 75 | 1016.9 |
| 20260503011850 | 54 | 67 | 1.7 | 4.3 | 0.00 | 0.00 | 0.00 | 75 | 1017.0 |
| 20260503011352 | 54 | 67 | 2.6 | 4.3 | 0.00 | 0.00 | 0.00 | 75 | 1016.9 |
| 20260503010847 | 54 | 64 | 2.6 | 6.1 | 0.00 | 0.00 | 0.00 | 75 | 1017.0 |
| 20260503010357 | 54 | 79 | 2.6 | 6.1 | 0.00 | 0.00 | 0.00 | 75 | 1017.2 |
| 20260503005841 | 54 | 63 | 3.5 | 4.3 | 0.00 | 0.00 | 0.00 | 76 | 1017.3 |
| 20260503005340 | 54 | 67 | 1.7 | 4.3 | 0.00 | 0.00 | 0.00 | 75 | 1017.3 |
| 20260503004838 | 54 | 66 | 2.6 | 4.3 | 0.00 | 0.00 | 0.00 | 76 | 1017.4 |
| 20260503004336 | 54 | 66 | 1.7 | 4.3 | 0.00 | 0.00 | 0.00 | 76 | 1017.4 |
| 20260503003836 | 54 | 70 | 3.5 | 4.3 | 0.00 | 0.00 | 0.00 | 77 | 1017.3 |
| 20260503003331 | 53 | 64 | 2.6 | 3.5 | 0.00 | 0.00 | 0.00 | 77 | 1017.4 |
| 20260503002825 | 53 | 49 | 1.7 | 3.5 | 0.00 | 0.00 | 0.00 | 77 | 1017.4 |
| 20260503002321 | 53 | 63 | 1.7 | 3.5 | 0.00 | 0.00 | 0.00 | 76 | 1017.4 |
| 20260503001821 | 54 | 70 | 2.6 | 3.5 | 0.00 | 0.00 | 0.00 | 75 | 1017.4 |
| 20260503000814 | 55 | 55 | 2.6 | 3.5 | 0.00 | 0.00 | 0.00 | 75 | 1017.4 |
| 20260502235805 | 55 | 65 | 1.7 | 2.6 | 0.00 | 0.00 | 0.00 | 75 | 1017.5 |
| 20260502235309 | 55 | 61 | 1.7 | 2.6 | 0.00 | 0.00 | 0.00 | 74 | 1017.5 |
| 20260502234802 | 55 | 61 | 1.7 | 3.5 | 0.00 | 0.00 | 0.00 | 74 | 1017.5 |
| 20260502233804 | 55 | 81 | 2.6 | 5.2 | 0.00 | 0.00 | 0.00 | 73 | 1017.4 |
| 20260502233259 | 55 | 265 | 0.9 | 5.2 | 0.00 | 0.00 | 0.00 | 73 | 1017.6 |
| 20260502232257 | 56 | 44 | 0.9 | 1.7 | 0.00 | 0.00 | 0.00 | 73 | 1017.5 |
| 20260502231746 | 56 | 42 | 0.9 | 3.5 | 0.00 | 0.00 | 0.00 | 72 | 1017.5 |
| 20260502231234 | 57 | 42 | 0.9 | 4.3 | 0.00 | 0.00 | 0.00 | 71 | 1017.5 |
| 20260502230734 | 57 | 169 | 2.6 | 4.3 | 0.00 | 0.00 | 0.00 | 71 | 1017.4 |
| 20260502230234 | 57 | 61 | 1.7 | 5.2 | 0.00 | 0.00 | 0.00 | 70 | 1017.3 |
| 20260502225726 | 57 | 70 | 2.6 | 5.2 | 0.00 | 0.00 | 0.00 | 70 | 1017.3 |
| 20260502225224 | 57 | 61 | 2.6 | 4.3 | 0.00 | 0.00 | 0.00 | 69 | 1017.4 |
| 20260502224722 | 57 | 72 | 2.6 | 4.3 | 0.00 | 0.00 | 0.00 | 68 | 1017.3 |
| 20260502224220 | 58 | 37 | 0.0 | 3.5 | 0.00 | 0.00 | 0.00 | 67 | 1017.4 |
| 20260502223722 | 58 | 44 | 1.7 | 3.5 | 0.00 | 0.00 | 0.00 | 66 | 1017.4 |
| 20260502223217 | 58 | 210 | 0.0 | 2.6 | 0.00 | 0.00 | 0.00 | 66 | 1017.4 |
| 20260502222717 | 59 | 210 | 1.7 | 4.3 | 0.00 | 0.00 | 0.00 | 65 | 1017.3 |
| 20260502221714 | 59 | 69 | 0.9 | 6.1 | 0.00 | 0.00 | 0.00 | 65 | 1017.2 |
| 20260502220712 | 59 | 64 | 3.5 | 6.1 | 0.00 | 0.00 | 0.00 | 64 | 1016.9 |
| 20260502220215 | 59 | 51 | 1.7 | 6.1 | 0.00 | 0.00 | 0.00 | 64 | 1016.9 |
| 20260502215707 | 58 | 52 | 4.3 | 6.1 | 0.00 | 0.00 | 0.00 | 64 | 1016.9 |
| 20260502214704 | 58 | 40 | 2.6 | 4.3 | 0.00 | 0.00 | 0.00 | 65 | 1016.9 |
| 20260502214201 | 58 | 40 | 1.7 | 2.6 | 0.00 | 0.00 | 0.00 | 65 | 1016.9 |
| 20260502213703 | 58 | 53 | 0.9 | 3.5 | 0.00 | 0.00 | 0.00 | 64 | 1016.9 |
| 20260502213202 | 59 | 54 | 0.9 | 6.1 | 0.00 | 0.00 | 0.00 | 63 | 1016.8 |
| 20260502212704 | 59 | 24 | 1.7 | 7.8 | 0.00 | 0.00 | 0.00 | 62 | 1016.8 |
| 20260502212152 | 59 | 59 | 5.2 | 7.8 | 0.00 | 0.00 | 0.00 | 62 | 1016.8 |
| 20260502211648 | 59 | 48 | 5.2 | 7.8 | 0.00 | 0.00 | 0.00 | 61 | 1016.8 |
| 20260502211145 | 59 | 61 | 3.5 | 6.1 | 0.00 | 0.00 | 0.00 | 61 | 1016.9 |
| 20260502210643 | 60 | 61 | 4.3 | 6.1 | 0.00 | 0.00 | 0.00 | 60 | 1016.9 |
| 20260502205641 | 60 | 57 | 3.5 | 6.1 | 0.00 | 0.00 | 0.00 | 60 | 1016.9 |
| 20260502204639 | 60 | 56 | 4.3 | 7.8 | 0.00 | 0.00 | 0.00 | 59 | 1017.0 |
| 20260502204133 | 60 | 59 | 3.5 | 7.8 | 0.00 | 0.00 | 0.00 | 59 | 1017.0 |
| 20260502203629 | 60 | 74 | 2.6 | 7.8 | 0.00 | 0.00 | 0.00 | 59 | 1017.0 |
| 20260502202624 | 60 | 91 | 4.3 | 7.0 | 0.00 | 0.00 | 0.00 | 59 | 1017.2 |
| 20260502201622 | 60 | 58 | 4.3 | 7.0 | 0.00 | 0.00 | 0.00 | 61 | 1017.2 |
| 20260502201120 | 60 | 61 | 1.7 | 4.3 | 0.00 | 0.00 | 0.00 | 62 | 1017.2 |
| 20260502200617 | 59 | 63 | 1.7 | 3.5 | 0.00 | 0.00 | 0.00 | 63 | 1017.3 |
| 20260502200124 | 60 | 61 | 0.9 | 2.6 | 0.00 | 0.00 | 0.00 | 63 | 1017.3 |
| 20260502195607 | 60 | 69 | 0.9 | 3.5 | 0.00 | 0.00 | 0.00 | 64 | 1017.3 |
| 20260502195106 | 60 | 69 | 0.9 | 3.5 | 0.00 | 0.00 | 0.00 | 63 | 1017.3 |
| 20260502194603 | 60 | 69 | 1.7 | 4.3 | 0.00 | 0.00 | 0.00 | 62 | 1017.3 |
| 20260502194056 | 61 | 61 | 2.6 | 4.3 | 0.00 | 0.00 | 0.00 | 61 | 1017.3 |
| 20260502193558 | 62 | 51 | 0.9 | 2.6 | 0.00 | 0.00 | 0.00 | 59 | 1017.2 |
| 20260502193053 | 63 | 88 | 0.0 | 2.6 | 0.00 | 0.00 | 0.00 | 58 | 1017.3 |
| 20260502192550 | 63 | 88 | 0.9 | 2.6 | 0.00 | 0.00 | 0.00 | 56 | 1017.2 |
| 20260502192050 | 64 | 119 | 0.9 | 3.5 | 0.00 | 0.00 | 0.00 | 56 | 1017.2 |
| 20260502191543 | 64 | 107 | 1.7 | 5.2 | 0.00 | 0.00 | 0.00 | 55 | 1017.0 |
| 20260502190543 | 65 | 38 | 2.6 | 6.1 | 0.00 | 0.00 | 0.00 | 53 | 1016.9 |
| 20260502190113 | 65 | 66 | 2.6 | 5.2 | 0.00 | 0.00 | 0.00 | 54 | 1016.8 |
| 20260502185532 | 65 | 58 | 2.6 | 4.3 | 0.00 | 0.00 | 0.00 | 54 | 1016.7 |
| 20260502185033 | 66 | 55 | 1.7 | 4.3 | 0.00 | 0.00 | 0.00 | 53 | 1016.8 |
| 20260502184531 | 66 | 61 | 1.7 | 4.3 | 0.00 | 0.00 | 0.00 | 52 | 1016.7 |
| 20260502184033 | 67 | 54 | 2.6 | 6.1 | 0.00 | 0.00 | 0.00 | 52 | 1016.7 |
| 20260502183531 | 67 | 69 | 3.5 | 6.1 | 0.00 | 0.00 | 0.00 | 52 | 1016.8 |
| 20260502183028 | 67 | 67 | 2.6 | 4.3 | 0.00 | 0.00 | 0.00 | 52 | 1016.7 |
| 20260502182526 | 67 | 79 | 3.5 | 6.1 | 0.00 | 0.00 | 0.00 | 52 | 1016.7 |
| 20260502182028 | 67 | 62 | 3.5 | 6.1 | 0.00 | 0.00 | 0.00 | 53 | 1016.6 |
| 20260502181526 | 68 | 82 | 2.6 | 4.3 | 0.00 | 0.00 | 0.00 | 53 | 1016.5 |
| 20260502180520 | 68 | 82 | 2.6 | 4.3 | 0.00 | 0.00 | 0.00 | 54 | 1016.5 |
| 20260502170455 | 75 | 51 | 5.2 | 9.6 | 0.00 | 0.00 | 0.00 | 42 | 1016.5 |
| 20260502163945 | 76 | 47 | 3.5 | 7.0 | 0.00 | 0.00 | 0.00 | 43 | 1016.8 |
| 20260502163441 | 76 | 90 | 1.7 | 7.8 | 0.00 | 0.00 | 0.00 | 42 | 1016.8 |
| 20260502162942 | 76 | 27 | 2.6 | 7.8 | 0.00 | 0.00 | 0.00 | 44 | 1016.8 |
| 20260502162439 | 76 | 47 | 2.6 | 7.0 | 0.00 | 0.00 | 0.00 | 42 | 1016.9 |
| 20260502161936 | 76 | 255 | 2.6 | 7.0 | 0.00 | 0.00 | 0.00 | 41 | 1016.9 |
| 20260502161435 | 76 | 35 | 3.5 | 7.0 | 0.00 | 0.00 | 0.00 | 41 | 1016.9 |
| 20260502160933 | 77 | 32 | 2.6 | 7.0 | 0.00 | 0.00 | 0.00 | 42 | 1017.0 |
| 20260502160434 | 77 | 78 | 3.5 | 7.0 | 0.00 | 0.00 | 0.00 | 40 | 1017.2 |
| 20260502151925 | 78 | 21 | 3.5 | 7.8 | 0.00 | 0.00 | 0.00 | 41 | 1017.4 |
| 20260502151427 | 78 | 61 | 1.7 | 5.2 | 0.00 | 0.00 | 0.00 | 40 | 1017.4 |
| 20260502150414 | 78 | 200 | 2.6 | 6.1 | 0.00 | 0.00 | 0.00 | 39 | 1017.6 |
| 20260502130333 | 77 | 205 | 1.7 | 5.2 | 0.00 | 0.00 | 0.00 | 39 | 1019.5 |
| 20260502122819 | 75 | 186 | 2.6 | 5.2 | 0.00 | 0.00 | 0.00 | 40 | 1019.9 |
| 20260502122319 | 74 | 175 | 1.7 | 7.0 | 0.00 | 0.00 | 0.00 | 41 | 1020.0 |
| 20260502121817 | 76 | 27 | 3.5 | 7.0 | 0.00 | 0.00 | 0.00 | 40 | 1020.1 |
| 20260502121315 | 75 | 51 | 1.7 | 5.2 | 0.00 | 0.00 | 0.00 | 44 | 1020.1 |
| 20260502120810 | 75 | 194 | 1.7 | 8.7 | 0.00 | 0.00 | 0.00 | 43 | 1020.2 |
| 20260502120315 | 75 | 188 | 5.2 | 8.7 | 0.00 | 0.00 | 0.00 | 43 | 1020.3 |
| 20260502114307 | 73 | 157 | 3.5 | 7.0 | 0.00 | 0.00 | 0.00 | 45 | 1020.5 |
| 20260502113804 | 74 | 217 | 3.5 | 7.0 | 0.00 | 0.00 | 0.00 | 44 | 1020.6 |
| 20260502113257 | 73 | 262 | 1.7 | 3.5 | 0.00 | 0.00 | 0.00 | 47 | 1020.6 |
| 20260502112249 | 73 | 191 | 4.3 | 7.0 | 0.00 | 0.00 | 0.00 | 46 | 1020.8 |
| 20260502111746 | 74 | 173 | 3.5 | 5.2 | 0.00 | 0.00 | 0.00 | 48 | 1020.8 |
| 20260502111244 | 72 | 174 | 0.9 | 5.2 | 0.00 | 0.00 | 0.00 | 50 | 1020.9 |
| 20260502110735 | 71 | 195 | 1.7 | 5.2 | 0.00 | 0.00 | 0.00 | 53 | 1021.1 |
| 20260502110233 | 71 | 84 | 1.7 | 5.2 | 0.00 | 0.00 | 0.00 | 49 | 1021.2 |
| 20260502105729 | 72 | 218 | 3.5 | 5.2 | 0.00 | 0.00 | 0.00 | 53 | 1021.2 |
| 20260502105228 | 72 | 197 | 2.6 | 5.2 | 0.00 | 0.00 | 0.00 | 51 | 1021.4 |
| 20260502104737 | 72 | 178 | 2.6 | 6.1 | 0.00 | 0.00 | 0.00 | 52 | 1021.5 |
| 20260502104224 | 71 | 209 | 2.6 | 6.1 | 0.00 | 0.00 | 0.00 | 53 | 1021.6 |
| 20260502103724 | 71 | 198 | 1.7 | 5.2 | 0.00 | 0.00 | 0.00 | 48 | 1021.7 |
| 20260502103212 | 71 | 204 | 2.6 | 7.0 | 0.00 | 0.00 | 0.00 | 49 | 1021.8 |
| 20260502102711 | 70 | 167 | 4.3 | 7.0 | 0.00 | 0.00 | 0.00 | 51 | 1021.7 |
| 20260502102208 | 70 | 199 | 4.3 | 5.2 | 0.00 | 0.00 | 0.00 | 51 | 1021.8 |
| 20260502101209 | 70 | 202 | 2.6 | 6.1 | 0.00 | 0.00 | 0.00 | 49 | 1022.0 |
| 20260502100709 | 70 | 177 | 0.9 | 6.1 | 0.00 | 0.00 | 0.00 | 51 | 1022.1 |
| 20260502100203 | 70 | 238 | 1.7 | 6.1 | 0.00 | 0.00 | 0.00 | 50 | 1022.2 |
| 20260502091205 | 67 | 198 | 0.9 | 3.5 | 0.00 | 0.00 | 0.00 | 52 | 1022.8 |
| 20260502090706 | 67 | 216 | 1.7 | 4.3 | 0.00 | 0.00 | 0.00 | 54 | 1022.9 |
| 20260502090202 | 67 | 199 | 1.7 | 4.3 | 0.00 | 0.00 | 0.00 | 54 | 1023.1 |
| 20260502070627 | 61 | 124 | 1.7 | 3.5 | 0.00 | 0.00 | 0.00 | 60 | 1023.2 |
| 20260502065113 | 61 | 88 | 1.7 | 2.6 | 0.00 | 0.00 | 0.00 | 60 | 1023.3 |
| 20260502064111 | 60 | 80 | 0.9 | 1.7 | 0.00 | 0.00 | 0.00 | 60 | 1023.3 |
| 20260502063610 | 60 | 78 | 0.9 | 2.6 | 0.00 | 0.00 | 0.00 | 63 | 1023.3 |
| 20260502063110 | 60 | 78 | 0.9 | 3.5 | 0.00 | 0.00 | 0.00 | 62 | 1023.3 |
| 20260502062554 | 60 | 80 | 1.7 | 3.5 | 0.00 | 0.00 | 0.00 | 62 | 1023.3 |
| 20260502062055 | 59 | 68 | 2.6 | 3.5 | 0.00 | 0.00 | 0.00 | 62 | 1023.2 |
| 20260502061555 | 59 | 96 | 1.7 | 2.6 | 0.00 | 0.00 | 0.00 | 65 | 1023.2 |
| 20260502061045 | 58 | 96 | 0.0 | 1.7 | 0.00 | 0.00 | 0.00 | 65 | 1023.3 |
| 20260502060545 | 58 | 96 | 0.0 | 2.6 | 0.00 | 0.00 | 0.00 | 65 | 1023.1 |
| 20260502060114 | 58 | 96 | 1.7 | 4.3 | 0.00 | 0.00 | 0.00 | 65 | 1023.2 |
| 20260502055530 | 58 | 76 | 1.7 | 5.2 | 0.00 | 0.00 | 0.00 | 65 | 1023.3 |
| 20260502055028 | 57 | 69 | 1.7 | 6.1 | 0.00 | 0.00 | 0.00 | 67 | 1023.3 |
| 20260502054522 | 57 | 96 | 3.5 | 6.1 | 0.00 | 0.00 | 0.00 | 67 | 1023.3 |
| 20260502054024 | 56 | 85 | 3.5 | 7.0 | 0.00 | 0.00 | 0.00 | 67 | 1023.3 |
| 20260502053521 | 56 | 38 | 3.5 | 7.8 | 0.00 | 0.00 | 0.00 | 68 | 1023.3 |
| 20260502053018 | 56 | 73 | 2.6 | 7.8 | 0.00 | 0.00 | 0.00 | 68 | 1023.3 |
| 20260502052529 | 55 | 89 | 2.6 | 6.1 | 0.00 | 0.00 | 0.00 | 70 | 1023.3 |
| 20260502052016 | 54 | 94 | 1.7 | 4.3 | 0.00 | 0.00 | 0.00 | 72 | 1023.2 |
| 20260502051016 | 51 | 82 | 0.9 | 1.7 | 0.00 | 0.00 | 0.00 | 77 | 1023.2 |
| 20260502050516 | 50 | 70 | 0.9 | 3.5 | 0.00 | 0.00 | 0.00 | 79 | 1022.9 |
| 20260502050116 | 49 | 70 | 1.7 | 3.5 | 0.00 | 0.00 | 0.00 | 79 | 1022.9 |
| 20260502045512 | 49 | 65 | 1.7 | 2.6 | 0.00 | 0.00 | 0.00 | 79 | 1022.9 |
| 20260502044950 | 49 | 71 | 1.7 | 2.6 | 0.00 | 0.00 | 0.00 | 78 | 1022.9 |
| 20260502044447 | 49 | 72 | 0.9 | 2.6 | 0.00 | 0.00 | 0.00 | 78 | 1022.9 |
| 20260502042949 | 49 | 71 | 2.6 | 3.5 | 0.00 | 0.00 | 0.00 | 76 | 1022.9 |
| 20260502042437 | 49 | 53 | 1.7 | 2.6 | 0.00 | 0.00 | 0.00 | 76 | 1023.1 |
| 20260502041436 | 50 | 51 | 1.7 | 3.5 | 0.00 | 0.00 | 0.00 | 75 | 1023.1 |
| 20260502040936 | 50 | 59 | 1.7 | 3.5 | 0.00 | 0.00 | 0.00 | 74 | 1022.9 |
| 20260502040432 | 50 | 82 | 0.9 | 2.6 | 0.00 | 0.00 | 0.00 | 74 | 1022.9 |
| 20260502035931 | 51 | 82 | 0.0 | 1.7 | 0.00 | 0.00 | 0.00 | 74 | 1022.9 |
| 20260502035431 | 51 | 82 | 0.0 | 1.7 | 0.00 | 0.00 | 0.00 | 74 | 1022.8 |
| 20260502034930 | 51 | 82 | 0.9 | 1.7 | 0.00 | 0.00 | 0.00 | 74 | 1022.9 |
| 20260502033924 | 51 | 82 | 0.9 | 3.5 | 0.00 | 0.00 | 0.00 | 74 | 1022.6 |
| 20260502033422 | 51 | 82 | 0.9 | 3.5 | 0.00 | 0.00 | 0.00 | 74 | 1022.6 |
| 20260502032921 | 51 | 57 | 1.7 | 4.3 | 0.00 | 0.00 | 0.00 | 74 | 1022.7 |
| 20260502032422 | 51 | 70 | 1.7 | 6.1 | 0.00 | 0.00 | 0.00 | 74 | 1022.7 |
| 20260502031416 | 51 | 80 | 1.7 | 5.2 | 0.00 | 0.00 | 0.00 | 74 | 1022.7 |
| 20260502030914 | 51 | 75 | 3.5 | 6.1 | 0.00 | 0.00 | 0.00 | 75 | 1022.7 |
| 20260502030416 | 51 | 78 | 2.6 | 6.1 | 0.00 | 0.00 | 0.00 | 75 | 1022.9 |
| 20260502025911 | 51 | 62 | 3.5 | 6.1 | 0.00 | 0.00 | 0.00 | 75 | 1022.8 |
| 20260502025410 | 51 | 66 | 3.5 | 6.1 | 0.00 | 0.00 | 0.00 | 75 | 1022.8 |
| 20260502024908 | 51 | 78 | 2.6 | 4.3 | 0.00 | 0.00 | 0.00 | 74 | 1022.7 |
| 20260502024411 | 51 | 74 | 0.9 | 2.6 | 0.00 | 0.00 | 0.00 | 74 | 1022.7 |
| 20260502023907 | 51 | 74 | 1.7 | 2.6 | 0.00 | 0.00 | 0.00 | 74 | 1022.8 |
| 20260502023407 | 51 | 74 | 1.7 | 3.5 | 0.00 | 0.00 | 0.00 | 74 | 1022.9 |
| 20260502022906 | 51 | 71 | 1.7 | 3.5 | 0.00 | 0.00 | 0.00 | 74 | 1022.9 |
| 20260502022407 | 51 | 70 | 0.9 | 3.5 | 0.00 | 0.00 | 0.00 | 74 | 1022.9 |
| 20260502021904 | 51 | 79 | 1.7 | 3.5 | 0.00 | 0.00 | 0.00 | 74 | 1022.9 |